Aérodrome :
LOGIN :

S'inscrire | Disclaimer

   EN    FR    IT 

 










Légende :    VFR   VFR Marginal   IFR   IFR Intensif   IFR Très Intensif
Visi : 
Plafond : 
>= 8 km
>= 3000ft
5 à 8 km
1000 à 3000 ft
1500m à 5 km
500 à 1000 ft
800 à 1500m
200 à 500 ft
< 800m
< 200 ft
Symboles :   Orages  Brouillard  Fortes neiges  Fortes précipitations  Vent > 20 kt
SIGMETs :   Divers  Orages  Givrage  Turbulence  Onde Orograph.  Cendres Volcan.







- Altitude de l'aérodrome : 1475 ft


LSZC - Buochs Stans

METARs EXPIRÉS :
  • 241420Z AUTO VRB02KT 9999 BKN039 23/16 Q1019
  • 241350Z AUTO VRB01KT 9999 OVC035 23/16 Q1019
  • 241320Z AUTO 34003KT 300V020 9999 SCT030 BKN035 23/16 Q1019
  • 241250Z AUTO VRB03KT 9999 BKN030 22/16 Q1019
  • 241220Z AUTO VRB02KT 9999 OVC030 22/16 Q1019
  • 241150Z AUTO VRB03KT 9999 BKN030 22/16 Q1020

Prévision TAF périmée.
Pas de NOTAMs connus pour ce terrain.



MET'MAP, la Météo Aéronautique d'un coup d'oeil ! - Copyright ORBIFLY Décembre 2007 - Disclaimer

ORBIFLY MET'MAP TEAM :

Programmation & Développement : Alexandra Zaïnal
Conception & Développement : Baudouin d'Aumeries
Co-Programmation & Développement : Marc-Olivier Méhu
Soutien technique & logistique : Manuel Goepfert

Contact : metmap@orbifly.com




SOURCES & CREDITS :

   NOAA